Regional Weather Roundup
Issued by NWS

Home | Current Version | Previous Version | Graphics & Text | Print | Product List | Glossary On
Versions: 1 2 3 4 5 6 7 8 9 10 11 12 13 14 15 16 17 18 19 20 21 22 23 24 25 26 27 28 29 30 31 32 33 34 35 36 37 38 39 40 41 42 43 44 45 46 47 48 49 50
000
ASUS43 KFSD 271902
RWRSD

WEATHER ROUNDUP FOR SOUTH DAKOTA
NATIONAL WEATHER SERVICE SIOUX FALLS SD
200 PM CDT MON MAR 27 2017

NOTE: "FAIR" INDICATES FEW OR NO CLOUDS BELOW 12,000 FEET WITH NO
SIGNIFICANT WEATHER AND/OR OBSTRUCTIONS TO VISIBILITY.


SDZ001>005-009-010-012>017-272000-
NORTHWEST AND NORTH CENTRAL SOUTH DAKOTA

CITY           SKY/WX    TMP DP  RH WIND       PRES   REMARKS
BUFFALO          N/A     59  32  36 SE13G22   29.81F
FAITH            N/A     54  40  59 MISG      29.89F
MOBRIDGE       SUNNY     60  34  37 S9        29.90F
$$

SDZ012>016-024>037-041>051-057-063-072>074-272000-
SOUTHWEST AND SOUTH CENTRAL SOUTH DAKOTA

CITY           SKY/WX    TMP DP  RH WIND       PRES   REMARKS
RAPID CTY ARPT PTSUNNY   49  42  77 VRB5      29.87F
PIERRE         MOSUNNY   57  34  41 SE12      29.91F
CUSTER         PTSUNNY   48  32  53 SE8       29.85F
ELLSWORTH AFB  SUNNY     53  44  71 CALM      29.86F
PHILIP         SUNNY     59  38  45 SE8       29.87F
PINE RIDGE     PTSUNNY   61  35  37 S9        29.83F
SPEARFISH      FAIR      55  37  50 E17       29.85F
WINNER         MOCLDY    58  39  49 S6        29.91F
$$

SDZ004>011-016>023-039-040-272000-
NORTHEAST SOUTH DAKOTA

CITY           SKY/WX    TMP DP  RH WIND       PRES   REMARKS
ABERDEEN       SUNNY     58  33  39 VRB5      29.95F
WATERTOWN      PTSUNNY   54  35  48 VRB3      29.95F
BROOKINGS      SUNNY     54  34  46 VRB3      29.94F
SISSETON         N/A     53  40  61 SE7       29.96F
$$

SDZ017-020-022-023-036>040-048>070-272000-
SOUTHEAST SOUTH DAKOTA

CITY           SKY/WX    TMP DP  RH WIND       PRES   REMARKS
SIOUX FALLS    MOSUNNY   57  38  48 NE7       29.95F
HURON          SUNNY     57  35  43 E6        29.94F
CHAMBERLAIN    SUNNY     60  35  39 E5        29.93F
MITCHELL       MOSUNNY   57  36  45 VRB5      29.95F
YANKTON        MOSUNNY   54  39  58 SE5       29.96F
$$

ABBREVIATIONS USED IN REMARKS
   TC - TEMPERATURE IN CELSIUS
  WCI - WIND CHILL INDEX
   HX - HEAT INDEX
  VSB - VISIBILITY





USA.gov is the U.S. government's official web portal to all federal, state and local government web resources and services.